This is the latest recevied weather packets stored in our database for station/object KC3DGM. If no packets are shown the sender has not sent any weather packets the latest 10 day(s).
| Time | Temp. | Humidity | Pressure | Rain* | Wind** | Luminosity | Snow |
|---|---|---|---|---|---|---|---|
| 1778098187 | 11.67° C | 60% | 982.6 hPa | 0 mm | - | 147 W/m² | - |
| 1778097883 | 11.11° C | 60% | 982.7 hPa | 0 mm | - | 114 W/m² | - |
| 1778097579 | 11.67° C | 58% | 982.8 hPa | 0 mm | - | 100 W/m² | - |
| 1778097277 | 11.67° C | 60% | 982.7 hPa | 0 mm | - | 131 W/m² | - |
| 1778096973 | 11.67° C | 58% | 982.7 hPa | 0 mm | - | 170 W/m² | - |
| 1778096671 | 11.67° C | 58% | 982.6 hPa | 0 mm | - | 156 W/m² | - |
| 1778096367 | 11.67° C | 58% | 982.6 hPa | 0 mm | - | 149 W/m² | - |
| 1778096065 | 11.67° C | 58% | 982.3 hPa | 0 mm | - | 170 W/m² | - |
| 1778095761 | 12.22° C | 59% | 982.4 hPa | 0 mm | - | 160 W/m² | - |
| 1778095458 | 12.22° C | 60% | 982.4 hPa | 0 mm | - | 248 W/m² | - |
| 1778095155 | 12.22° C | 59% | 982.3 hPa | 0 mm | - | 229 W/m² | - |
| 1778094851 | 12.78° C | 62% | 982.3 hPa | 0 mm | - | 369 W/m² | - |
| 1778094548 | 12.22° C | 63% | 982 hPa | 0 mm | - | 275 W/m² | - |
| 1778094244 | 12.78° C | 64% | 982.3 hPa | 0 mm | - | 255 W/m² | - |
| 1778093941 | 12.78° C | 67% | 982.1 hPa | 0 mm | - | 221 W/m² | - |
| 1778093639 | 11.67° C | 70% | 981.8 hPa | 0 mm | - | 417 W/m² | - |
| 1778093336 | 11.11° C | 71% | 982.1 hPa | 0 mm | - | 187 W/m² | - |
| 1778093032 | 11.11° C | 73% | 982.1 hPa | 0 mm | - | 95 W/m² | - |
| 1778092730 | 11.11° C | 72% | 982.1 hPa | 0 mm | - | 53 W/m² | - |
| 1778092425 | 11.11° C | 73% | 982.1 hPa | 0 mm | - | 44 W/m² | - |
| 1778092123 | 11.67° C | 72% | 982.2 hPa | 0 mm | - | 121 W/m² | - |
| 1778091820 | 11.11° C | 75% | 982.1 hPa | 0 mm | - | 191 W/m² | - |
| 1778091517 | 11.11° C | 75% | 982.2 hPa | 0 mm | - | 84 W/m² | - |
| 1778091215 | 11.11° C | 76% | 982.1 hPa | 0 mm | - | 131 W/m² | - |
| 1778090912 | 11.11° C | 74% | 982.2 hPa | 0 mm | - | 145 W/m² | - |
* Rain latest hour (hover to see other rain measurements)
** Current wind speed in m/s (hover to see current wind gust speed)